Location: Unspecified
(32.6831°N, 0.0000°E)
Time: 13:25:52
(UTC+00:00)

Cosmos 2360 - Visible Passes

Search period start: 04 April 2026 00:00
Search period end: 14 April 2026 00:00
Orbit: 848 x 854 km, 70.7° (Epoch: 29 March)

Date Brightness Start Highest point End Pass type
(mag) Time Alt. Az. Time Alt. Az. Time Alt. Az.
4 Apr 5.8 02:33:54 10° N 02:37:02 29° NNE 02:37:02 29° NNE visible
5 Apr 6.3 02:21:37 10° N 02:23:28 20° N 02:23:28 20° N visible
6 Apr 6.6 02:09:20 10° N 02:10:25 15° N 02:10:25 15° N visible
7 Apr 6.8 01:57:02 10° N 01:57:38 13° N 01:57:38 13° N visible
8 Apr 6.9 01:44:46 10° N 01:45:01 11° N 01:45:01 11° N visible
9 Apr 7.0 01:32:29 10° N 01:32:31 10° N 01:32:31 10° N visible
